Regional Weather Roundup
Issued by NWS

Home | Current Version | Previous Version | Text Only | Print | Product List | Glossary On
Versions: 1 2 3 4 5 6 7 8 9 10 11 12 13 14 15 16 17 18 19 20 21 22 23 24 25 26 27 28 29 30 31 32 33 34 35 36 37 38 39 40 41 42 43 44 45 46 47 48 49 50
000
ASUS42 KTBW 280210
RWRFL
FLORIDA REGIONAL WEATHER ROUNDUP
NATIONAL WEATHER SERVICE TAMPA BAY RUSKIN FL
1000 PM EDT WED AUG 27 2014

NOTE: "FAIR" INDICATES FEW OR NO CLOUDS BELOW 12,000 FEET WITH NO
SIGNIFICANT WEATHER AND/OR OBSTRUCTIONS TO VISIBILITY.


FLZ001>010-012>015-112-114-115-280300-
PANHANDLE FLORIDA

CITY           SKY/WX    TMP DP  RH WIND       PRES   REMARKS
PENSACOLA      MOCLDY    81  69  67 W6        29.99R
PENSACOLA NAS  MOCLDY    78  71  79 W3        29.98S
MILTON NAS     MOCLDY    79  69  71 SW5       29.99R
CRESTVIEW      PTCLDY    76  70  82 CALM      30.01R
DUKE FIELD     MOCLDY    80  71  72 CALM      29.99R
VALPARAISO     PTCLDY    82  71  69 NW3       29.99R
MARY ESTHER    PTCLDY    83  67  58 CALM      29.98R
TRI COUNTY     LGT RAIN  74  72  93 CALM      30.00R
PANAMA CITY    FAIR      79  73  82 CALM      29.98R
TYNDALL AFB    CLEAR     81  72  74 SW6       30.00R
APALACHICOLA   CLEAR     77  70  79 CALM      29.99R

STATION/POSITION SKY/WX   TEMP    WIND        PRES    WAVE   SWELL
                          AIR SEA DIR/SP/G            HT/PER HT/PER
                          (F)     (DEG/KT/KT) (MB)    (FT/S) (FT/S)
30.1N   87.6W              84 85  190/  4/  6 1015.5R   3/ 7   2/ 7
29.2N   88.2W              85 85  100/ 10/ 12 1015.5R
28.8N   86.0W              85 87  100/ 10/ 12 1015.3R   3/ 6   3/ 6
PANAMA CITY BEAC           84 85  210/  5/  6 1015.5R
CAPE SAN BLAS    NOT AVBL
TOWER C                    83      CALM  /  1 1015.7R
28.5N   84.5W              84 86   60/  8/ 12 1015.3R   2/ 4   2/ 4

$$
FLZ011-016>038-118-127-128-134-139-239-280300-
NORTH FLORIDA

CITY           SKY/WX    TMP DP  RH WIND       PRES   REMARKS
MARIANNA       CLEAR     80  68  66 CALM      29.99R
TALLAHASSEE    PTCLDY    78  62  57 CALM      30.00R
PERRY          CLEAR     73  66  78 CALM      30.00S
CROSS CITY       N/A     73  66  78 CALM      29.99R
LAKE CITY      FAIR      70  64  83 E6        30.02R
GAINESVILLE    CLEAR     75  68  78 E3        30.02R
MAYPORT NAS    CLEAR     78  65  63 E6        30.02R
JACKSONVILLE   CLEAR     73  66  78 CALM      30.02R
JAX NAS        CLEAR     82  65  56 E5        30.02R
JAX CRAIG      CLEAR     73  67  81 CALM      30.02R
JAX CECIL      CLEAR     68  66  94 CALM      30.02R
FERNANDINA BEA FAIR      79  64  61 E6        30.01R
ST AUGUSTINE   CLEAR     79  69  71 NE6       30.02R

STATION/POSITION SKY/WX   TEMP    WIND        PRES    WAVE   SWELL
                          AIR SEA DIR/SP/G            HT/PER HT/PER
                          (F)     (DEG/KT/KT) (MB)    (FT/S) (FT/S)
SHELL POINT                85     190/  3/  4   N/A
KEATON BEACH               78      80/  2/  3 1016.0R
CEDAR KEY                  80      10/  4/  5 1016.0R
FERNANDINA                 78 83   80/  2/  3 1016.0R
30.7N   81.3W                 83                N/A     4/10   2/11
MAYPORT                    80 83   90/  5/  7   N/A
31.4N   80.9W              81 84   80/  8/ 10 1016.1R   4/11   3/11
ST AUGUSTINE               80      70/ 11/ 12 1017.1R

$$
FLZ040-043>046-052-053-057-058-063-144-280300-
INTERIOR CENTRAL FLORIDA

CITY           SKY/WX    TMP DP  RH WIND       PRES   REMARKS
OCALA          PTCLDY    79  66  65 CALM      30.02R
LEESBURG       CLEAR     80  69  69 E8        30.03R
SANFORD        CLEAR     78  69  73 NE3       30.02R
ORLANDO EXEC   PTCLDY    80  69  69 NE6       30.02R
ORLANDO INTL   PTCLDY    79  70  74 NE8       30.02R
KISSIMMEE      CLEAR     81  72  74 NE6       30.01R
WINTER HAVEN   PTCLDY    81  68  64 E12       30.02R
LAKELAND       PTCLDY    81  70  69 E9        30.00R
BARTOW         FAIR      79  70  73 E9        30.02R
OKEECHOBEE       N/A     77  73  88 MISG        N/A

$$
FLZ041-047-054-059-064-141-147-280300-
EAST CENTRAL FLORIDA

CITY           SKY/WX    TMP DP  RH WIND       PRES   REMARKS
DAYTONA BEACH  CLOUDY    80  68  66 NE9       30.02R
DELAND         CLEAR     75  70  83 CALM      30.03R
NEW SMYRNA BEA CLEAR     81  68  65 NE5       30.02
JFK SPACE CTR  PTCLDY    77  73  88 NE5       30.01R
CAPE CANAVERAL CLEAR     78  72  83 NE3       30.00R
PATRICK AFB    CLEAR     80  74  81 NE6       30.00R
MELBOURNE      CLEAR     81  74  79 NE8       30.00R
VERO BEACH     CLEAR     78  73  84 NE7       30.01R
FT PIERCE      PTCLDY    81  73  76 VRB3      30.00R
STUART         PTCLDY    81  73  78 NE5       30.01R

STATION/POSITION SKY/WX   TEMP    WIND        PRES    WAVE   SWELL
                          AIR SEA DIR/SP/G            HT/PER HT/PER
                          (F)     (DEG/KT/KT) (MB)    (FT/S) (FT/S)
28.5N   80.2W              83 83   40/ 12/ 14 1015.7R
28.9N   78.5W              82 84   20/  4/  6 1015.9R   9/10   8/10
TRIDENT PIER               77 83   CALM  /  2 1015.4R
28.4N   80.5W                 83                N/A     4/11   2/11
27.6N   80.2W                 83                N/A     5/11   3/11

$$
FLZ050-056-061-142-242-148-248-149-249-151-251-155-255-
160-260-280300-
WEST CENTRAL FLORIDA

CITY           SKY/WX    TMP DP  RH WIND       PRES   REMARKS
CRYSTAL RIVER  FAIR      79  70  73 E6        30.00R
INVERNESS      FAIR      79  57  47 CALM      30.01R
BROOKSVILLE    MOCLDY    81  70  69 E12       30.00R
ZEPHYRHILLS    FAIR      79  70  73 E7        30.02R
CLEARWATER     CLOUDY    85  72  65 N12       29.98R
TAMPA INTL     PTCLDY    85  70  60 E8        29.99R
TAMPA EXEC     MOCLDY    82  72  69 E8        30.00R
MACDILL AFB    DRIZZLE   84  77  79 SE15      29.98R
ST PETERSBURG  MOCLDY    86  74  67 E20       29.98R
SARASOTA       PTCLDY    84  74  71 NE6       29.96R
VENICE           N/A    N/A N/A N/A MISG        N/A

STATION/POSITION SKY/WX   TEMP    WIND        PRES    WAVE   SWELL
                          AIR SEA DIR/SP/G            HT/PER HT/PER
                          (F)     (DEG/KT/KT) (MB)    (FT/S) (FT/S)
CEDAR KEY                  80      10/  4/  5 1016.0R
28.5N   84.5W              84 86   60/  8/ 12 1015.3R   2/ 4   2/ 4
27.3N   84.3W                 87                N/A     3/ 4
CLEARWATER BEACH           85 87   10/ 10/ 13 1014.7R
MIDDLE TAMPA BAY           84     100/ 16/ 18 1015.2R
VENICE                     85 88  320/  9/ 10 1014.6R

$$
FLZ066-069-070-075>078-162-262-165-265-280300-
SOUTHWEST FLORIDA AND KEYS

CITY           SKY/WX    TMP DP  RH WIND       PRES   REMARKS
PUNTA GORDA    CLEAR     81  70  69 E8        29.99R
FT MYERS       MOCLDY    83  65  54 E5        29.96R
SOUTHWEST INTL PTCLDY    82  67  60 E9        29.97R
NAPLES         PTCLDY    86  72  62 E17G23    29.96R
MARCO ISLAND   CLOUDY    81  75  83 SE16G22   29.98R
MARATHON       CLOUDY    86  78  77 E10G20    29.95R HX  98
KEY WEST NAS   MOCLDY    86  77  74 E12       29.95R HX  97
KEY WEST INTL  MOCLDY    86  77  74 E14       29.95R HX  97

STATION/POSITION SKY/WX   TEMP    WIND        PRES    WAVE   SWELL
                          AIR SEA DIR/SP/G            HT/PER HT/PER
                          (F)     (DEG/KT/KT) (MB)    (FT/S) (FT/S)
VENICE                     85 88  320/  9/ 10 1014.6R
NAPLES                     86      60/  6/  8 1014.9R
DRY TORTUGAS               86     110/ 19/ 22 1013.5R
NW FL BAY                  87     110/ 16/ 18 1013.9R
SAND KEY                   85     160/ 18/ 25 1013.9R
SOMBRERO KEY               85      90/ 19/ 21 1014.9R
LONG KEY                   85 87  110/ 16/ 18 1015.2R
MOLASSES REEF              85 87   90/ 13/ 14 1014.7R

$$
FLZ067-068-071>074-168-172>174-280300-
SOUTHEAST FLORIDA

CITY           SKY/WX    TMP DP  RH WIND       PRES   REMARKS
W PALM BEACH   PTCLDY    84  72  67 E9        29.99R
FT LAUDER-EXEC CLEAR     83  74  74 NE7       29.98R
FT LAUDERDALE  PTCLDY    84  72  67 E8        29.97R
POMPANO BEACH  CLEAR     85  71  63 E8        29.98R
PEMBROKE PINES CLEAR     83  73  72 E6        29.99R
OPA LOCKA      CLEAR     83  73  72 E7        29.98R
MIAMI          PTCLDY    85  72  65 E12       29.98R
WEST KENDALL   CLEAR     82  73  74 E7        29.97R
HOMESTEAD      MOCLDY    84  72  67 E6        29.97R

STATION/POSITION SKY/WX   TEMP    WIND        PRES    WAVE   SWELL
                          AIR SEA DIR/SP/G            HT/PER HT/PER
                          (F)     (DEG/KT/KT) (MB)    (FT/S) (FT/S)
PORT EVERGLADES            85      70/  7/  9 1015.0
VIRGINIA KEY               85 87   70/ 10/ 12   N/A
LAKE WORTH                 84 87   90/  7/  9 1015.5R
FOWEY ROCKS                85 87   90/ 12/ 13 1015.4R
SETTLEMENT POINT           83      70/  7/  8 1016.5R

$$




USA.gov is the U.S. government's official web portal to all federal, state and local government web resources and services.